This demonstration page uses our WeatherBlox Daily Observations layout. Learn more.

Left ArrowRight Arrow

38.88101, -77.10428

Hourly Observations for November 12, 2021

Temp ( °F °C ) Dew Point ( °F °C ) Humidity (%) Winds ( mph kmh ) Pressure ( in mb ) Visibility ( mi km ) Precip ( " mm )
12:52 am 00:52 Cloudy 63 17.2 56 13.3 78 78 S 10 17 29.97 1015 10 16 0.00 0.00
1:52 am 01:52 Cloudy with Rain 64 17.8 58 14.4 81 81 S 16 26 29.93 1014 5 8 0.02 0.51
2:13 am 02:13 Cloudy with Rain 64 17.8 58 14.4 81 81 S 17 28 29.93 1014 6 10 0.03 0.76
2:23 am 02:23 Cloudy with Heavy Rain 63 17.2 59 15 87 87 S 15 24 29.93 1014 3 4 0.06 1.52
2:29 am 02:29 Cloudy with Heavy Rain 63 17.2 59 15 87 87 S 13 20 29.93 1014 3 5 0.10 2.54
2:36 am 02:36 Cloudy with Heavy Rain 62 16.7 59 15 90 90 S 13 20 29.93 1014 3 4 0.12 3.05
2:38 am 02:38 Cloudy with Heavy Rain 63 17.2 59 15 87 87 SSW 14 22 29.93 1014 2 3 0.13 3.30
2:43 am 02:43 Cloudy with Heavy Rain 63 17.2 60 15.6 90 90 S 14 22 29.93 1014 2 3 0.21 5.33
2:52 am 02:52 Cloudy with Light Rain 62 16.7 59 15 90 90 S 13 20 29.92 1013 3 5 0.27 6.86
3:52 am 03:52 Cloudy 62 16.7 58 14.4 86 86 S 10 17 29.89 1012 10 16 0.04 1.02
4:21 am 04:21 Cloudy with Light Rain 63 17.2 59 15 87 87 S 16 26 29.89 1012 3 4 0.06 1.52
4:29 am 04:29 Cloudy with Rain 62 16.7 59 15 90 90 S 15 24 29.88 1012 4 6 0.11 2.79
4:52 am 04:52 Cloudy 62 16.7 59 15 90 90 S 16 26 29.87 1012 10 16 0.12 3.05
5:46 am 05:46 Cloudy with Heavy Rain 63 17 61 16 94 94 WSW 20 31 29.90 1013 2 3 0.02 0.51
5:48 am 05:48 Cloudy with Heavy Rain 63 17 59 15 88 88 WSW 13 20 29.90 1013 2 3 0.02 0.51
5:52 am 05:52 Cloudy with Light Rain 62 16.7 58 14.4 86 86 SW 9 15 29.90 1012 4 6 0.10 2.54
6:04 am 06:04 Cloudy with Light Rain 62 16.7 57 13.9 84 84 SSW 6 9 29.91 1013 7 11 0.01 0.25
6:52 am 06:52 Cloudy with Light Rain 60 15.6 56 13.3 86 86 S 10 17 29.90 1012 5 8 0.01 0.25
7:52 am 07:52 Cloudy with Light Rain 60 15.6 57 13.9 90 90 SSW 7 11 29.94 1014 7 11 0.04 1.02
8:11 am 08:11 Cloudy with Light Rain 60 15.6 57 13.9 90 90 SW 8 13 29.96 1015 10 16 0.02 0.51
8:52 am 08:52 Cloudy with Light Rain 57 13.9 50 10 78 78 WNW 16 26 29.98 1015 10 16 0.04 1.02
9:09 am 09:09 Cloudy 57 13.9 46 7.8 67 67 NW 14 22 29.99 1016 10 16 0.00 0.00
9:52 am 09:52 Mostly Cloudy 58 14.4 44 6.7 60 60 NW 12 19 29.98 1015 10 16 0.00 0.00
10:52 am 10:52 Cloudy 59 15 41 5 51 51 NNW 12 19 30.00 1016 10 16 0.00 0.00
11:52 am 11:52 Mostly Cloudy 60 15.6 41 5 50 50 N 9 15 29.97 1015 10 16 0.00 0.00
12:52 pm 12:52 Mostly Sunny 63 17.2 41 5 45 45 NW 8 13 29.94 1014 10 16 0.00 0.00
1:52 pm 13:52 Sunny 64 17.8 38 3.3 38 38 WNW 9 15 29.95 1014 10 16 0.00 0.00
2:52 pm 14:52 Mostly Sunny 65 18.3 39 3.9 39 39 VRB 3 6 29.95 1014 10 16 0.00 0.00
3:52 pm 15:52 Mostly Sunny 64 17.8 41 5 43 43 NE 3 6 29.95 1014 10 16 0.00 0.00
4:52 pm 16:52 Mostly Sunny 62 16.7 37 2.8 40 40 Calm 29.95 1014 10 16 0.00 0.00
5:52 pm 17:52 Clear 57 13.9 43 6.1 60 60 Calm 29.96 1015 10 16 0.00 0.00
6:52 pm 18:52 Clear 56 13.3 46 7.8 70 70 Calm 29.98 1015 10 16 0.00 0.00
7:52 pm 19:52 Clear 55 12.8 42 5.6 62 62 S 3 6 29.97 1015 10 16 0.00 0.00
8:52 pm 20:52 Clear 52 11.1 45 7.2 77 77 Calm 29.96 1015 10 16 0.00 0.00
9:52 pm 21:52 Clear 51 10.6 43 6.1 74 74 WSW 5 7 29.96 1015 10 16 0.00 0.00
10:52 pm 22:52 Mostly Clear 51 10.6 45 7.2 80 80 S 3 6 29.94 1014 10 16 0.00 0.00
11:52 pm 23:52 Clear 50 10 43 6.1 77 77 SW 3 6 29.93 1014 10 16 0.00 0.00

Powered by AerisWeather